Tracking 30995 objects as of 5-Jul-2025
HD Live streaming from Space Station
objects crossing your sky now

STARLINK-6113

Track STARLINK-6113 now!
10-day predictions
STARLINK-6113 is classified as:


NORAD ID: 56113
Int'l Code: 2023-046W
Perigee: 565.5 km
Apogee: 567.0 km
Inclination: 43.0 °
Period: 95.8 minutes
Semi major axis: 6937 km
RCS: Unknown
Launch date: March 29, 2023
Source: United States (US)
Launch site: AIR FORCE EASTERN TEST RANGE (AFETR)
Your satellite tracking list
Your tracking list is empty




NASA's NSSDC Master Catalog

Two Line Element Set (TLE):
1 56113U 23046W   25186.03904582  .00000116  00000-0  23640-4 0  9991
2 56113  43.0046  64.2047 0001084 262.0125  98.0595 15.02534299124811
Source of the keplerian elements: AFSPC